Simultaneous Nadir Overpasses (SNOs) Predictions

Prediction of SNOs between AQUA and NOAA-19 Satellite Orbit:

Table of predicted SNOs for the next 14.0 days since TLE Epoch: 1/21/2023
Index Date (AQUA) Time (AQUA) Lat,Lon (AQUA) SZA (AQUA ) Date (NOAA-19) Time (NOAA-19) Lat,Lon (NOAA-19) SZA (NOAA-19 ) Distance(km) Time Diff (sec)
1 01/22/2023 03:53:19 76.82, 109.55 96.91 01/22/2023 03:52:06 76.78, 109.16 96.91 11.04 73
2 01/22/2023 04:42:45 -76.87, -83.00 83.04 01/22/2023 04:43:05 -76.89, -83.09 83.01 3.34 20
3 01/24/2023 09:25:56 -76.85,-153.67 83.57 01/24/2023 09:24:49 -76.83,-153.71 83.57 1.64 67
4 01/24/2023 10:15:23 76.89, 13.82 96.47 01/24/2023 10:15:46 76.89, 13.77 96.47 1.14 23
5 01/26/2023 14:58:32 76.82, -56.71 95.85 01/26/2023 14:57:30 76.84, -56.79 95.90 3.13 62
6 01/26/2023 15:47:58 -76.87, 110.75 84.10 01/26/2023 15:48:30 -76.87, 110.58 84.10 4.19 32
7 01/28/2023 20:31:07 -76.85, 40.04 84.68 01/28/2023 20:30:13 -76.83, 40.07 84.69 2.64 54
8 01/28/2023 21:20:34 76.90,-152.48 95.37 01/28/2023 21:21:11 76.89,-152.43 95.35 1.73 37
9 01/31/2023 02:03:40 76.84, 136.97 94.71 01/31/2023 02:02:54 76.82, 136.93 94.71 2.24 46
10 01/31/2023 02:53:06 -76.89, -55.58 85.25 01/31/2023 02:53:52 -76.89, -55.53 85.26 1.22 46
11 02/02/2023 07:36:12 -76.84,-126.14 85.93 02/02/2023 07:35:35 -76.83,-126.12 85.92 0.79 37



Historial Predications of SNOs between AQUA and NOAA-19
